TimeICT,TemperatureF,Dew PointF,Humidity,Sea Level PressureIn,VisibilityMPH,Wind Direction,Wind SpeedMPH,Gust SpeedMPH,PrecipitationIn,Events,Conditions,WindDirDegrees,DateUTC
7:00 AM,80.6,77.0,89,29.77,6.2,Calm,Calm,-,N/A,,Mostly Cloudy,0,2012-10-04 00:00:00
7:30 AM,80.6,77.0,89,29.77,6.2,West,3.5,-,N/A,,Mostly Cloudy,260,2012-10-04 00:30:00
8:00 AM,82.4,75.2,79,29.77,6.2,SW,1.2,-,N/A,,Mostly Cloudy,220,2012-10-04 01:00:00
8:30 AM,82.4,77.0,84,29.80,6.2,Variable,1.2,-,N/A,,Mostly Cloudy,0,2012-10-04 01:30:00
9:00 AM,86.0,77.0,74,29.80,6.2,NNW,4.6,-,N/A,,Mostly Cloudy,330,2012-10-04 02:00:00
9:30 AM,84.2,77.0,79,29.80,6.2,WNW,3.5,-,N/A,,Mostly Cloudy,290,2012-10-04 02:30:00
10:00 AM,86.0,75.2,70,29.80,6.2,WSW,5.8,-,N/A,,Scattered Clouds,250,2012-10-04 03:00:00
10:30 AM,86.0,75.2,70,29.80,6.2,WNW,5.8,-,N/A,,Scattered Clouds,290,2012-10-04 03:30:00
11:00 AM,87.8,75.2,66,29.80,6.2,WNW,6.9,-,N/A,,Mostly Cloudy,290,2012-10-04 04:00:00
11:30 AM,87.8,75.2,66,29.77,6.2,WNW,6.9,-,N/A,,Mostly Cloudy,290,2012-10-04 04:30:00
12:00 PM,87.8,75.2,66,29.74,6.2,WNW,8.1,-,N/A,,Scattered Clouds,290,2012-10-04 05:00:00
12:30 PM,89.6,75.2,62,29.74,6.2,West,5.8,-,N/A,,Scattered Clouds,280,2012-10-04 05:30:00
1:00 PM,87.8,75.2,66,29.74,6.2,West,6.9,-,N/A,,Scattered Clouds,260,2012-10-04 06:00:00
1:30 PM,87.8,75.2,66,29.71,6.2,West,9.2,-,N/A,,Scattered Clouds,260,2012-10-04 06:30:00
2:00 PM,89.6,75.2,62,29.68,6.2,NW,8.1,-,N/A,,Scattered Clouds,320,2012-10-04 07:00:00
2:30 PM,89.6,75.2,62,29.68,6.2,West,8.1,-,N/A,,Scattered Clouds,270,2012-10-04 07:30:00
3:00 PM,89.6,75.2,62,29.65,6.2,West,8.1,-,N/A,,Scattered Clouds,280,2012-10-04 08:00:00
3:30 PM,91.4,73.4,55,29.65,6.2,WSW,9.2,-,N/A,,Scattered Clouds,240,2012-10-04 08:30:00
4:30 PM,89.6,75.2,62,29.65,6.2,West,5.8,-,N/A,,Scattered Clouds,280,2012-10-04 09:30:00
5:00 PM,89.6,73.4,59,29.65,6.2,WNW,6.9,-,N/A,,Scattered Clouds,290,2012-10-04 10:00:00
5:30 PM,87.8,73.4,62,29.65,6.2,WNW,5.8,-,N/A,,Scattered Clouds,300,2012-10-04 10:30:00
6:00 PM,87.8,75.2,66,29.68,6.2,WNW,4.6,-,N/A,,Scattered Clouds,300,2012-10-04 11:00:00
6:30 PM,84.2,77.0,79,29.68,6.2,WSW,4.6,-,N/A,,Partly Cloudy,250,2012-10-04 11:30:00
7:00 PM,84.2,77.0,79,29.71,5.6,WSW,4.6,-,N/A,,Partly Cloudy,240,2012-10-04 12:00:00
7:30 PM,84.2,77.0,79,29.71,5.6,SSW,1.2,-,N/A,,Partly Cloudy,210,2012-10-04 12:30:00
8:00 PM,84.2,77.0,79,29.74,5.6,Calm,Calm,-,N/A,,Scattered Clouds,0,2012-10-04 13:00:00
8:30 PM,84.2,77.0,79,29.74,5.6,Calm,Calm,-,N/A,,Scattered Clouds,0,2012-10-04 13:30:00
9:00 PM,84.2,78.8,84,29.74,5.6,Calm,Calm,-,N/A,,Scattered Clouds,0,2012-10-04 14:00:00
9:30 PM,84.2,77.0,79,29.77,5.6,SW,2.3,-,N/A,,Scattered Clouds,230,2012-10-04 14:30:00
10:00 PM,84.2,75.2,74,29.77,5.6,West,10.4,-,N/A,,Scattered Clouds,270,2012-10-04 15:00:00
10:30 PM,82.4,75.2,79,29.77,5.6,WSW,6.9,-,N/A,,Scattered Clouds,250,2012-10-04 15:30:00
11:00 PM,82.4,73.4,74,29.77,5.6,WSW,5.8,-,N/A,,Scattered Clouds,240,2012-10-04 16:00:00